Temp
-29 -29 -29 -29 -30 -30 -30 -30 -30 -30 -30 -29 -29 -27 -26 -25 -24 -23 -22 -21 -20 -19 -19 -18 -19 -19 -17 -16 -15 -14 -14 -14 -15 -15 -15 -15 -15 -15
-29 -29 -29 -29 -29 -30 -30 -30 -30 -31 -30 -29 -28 -27 -26 -25 -24 -23 -22 -21 -20 -19 -19 -19 -18 -18 -17 -16 -15 -14 -14 -14 -15 -15 -14 -15 -15 -15
-29 -29 -29 -29 -29 -29 -29 -30 -30 -30 -30 -29 -28 -27 -26 -25 -24 -23 -22 -21 -20 -19 -19 -18 -18 -18 -17 -16 -15 -14 -15 -15 -15 -15 -15 -15 -15 -15
-29 -29 -29 -29 -29 -29 -29 -30 -30 -30 -30 -29 -28 -27 -26 -25 -24 -23 -22 -21 -20 -19 -19 -18 -18 -19 -18 -17 -15 -15 -15 -15 -15 -15 -15 -15 -15 -15
-29 -29 -29 -29 -29 -29 -29 -29 -30 -30 -30 -29 -28 -27 -26 -25 -24 -23 -23 -22 -20 -19 -19 -18 -18 -18 -17 -17 -16 -15 -16 -15 -15 -15 -15 -15 -15 -15
-29 -29 -29 -29 -29 -29 -29 -29 -30 -31 -30 -29 -28 -26 -26 -25 -24 -23 -23 -22 -21 -20 -19 -18 -18 -18 -18 -17 -17 -15 -15 -15 -15 -15 -15 -15 -15 -15
-28 -28 -29 -29 -29 -29 -29 -30 -30 -31 -30 -29 -28 -26 -25 -25 -24 -23 -22 -21 -21 -20 -19 -18 -18 -18 -18 -17 -17 -16 -16 -15 -15 -15 -15 -16 -15 -14
-28 -28 -29 -29 -29 -29 -30 -30 -31 -31 -30 -29 -28 -25 -25 -25 -24 -23 -22 -21 -20 -20 -19 -18 -18 -18 -17 -17 -17 -16 -16 -15 -15 -15 -15 -15 -15 -15
-28 -29 -29 -29 -29 -29 -30 -31 -31 -31 -30 -29 -27 -25 -25 -24 -23 -23 -22 -21 -20 -20 -19 -18 -18 -18 -18 -17 -16 -16 -16 -15 -15 -15 -15 -15 -15 -15
-28 -29 -29 -29 -29 -30 -30 -31 -32 -31 -30 -29 -27 -25 -25 -24 -23 -22 -22 -21 -20 -20 -19 -19 -18 -18 -17 -18 -17 -17 -16 -15 -15 -15 -15 -15 -15 -15
-28 -29 -29 -29 -29 -30 -30 -31 -32 -31 -30 -28 -26 -25 -24 -24 -23 -22 -22 -21 -20 -20 -19 -19 -18 -18 -18 -17 -18 -17 -16 -15 -15 -15 -15 -15 -15 -15
-29 -29 -29 -29 -29 -30 -30 -31 -32 -31 -29 -28 -25 -24 -24 -23 -23 -22 -21 -21 -20 -20 -20 -19 -18 -18 -18 -18 -17 -16 -16 -15 -15 -15 -15 -15 -14 -14
-29 -29 -29 -29 -29 -30 -30 -31 -32 -30 -29 -27 -25 -24 -24 -23 -23 -22 -21 -21 -20 -20 -19 -19 -18 -18 -18 -18 -18 -17 -16 -16 -16 -16 -15 -15 -15 -15
-28 -28 -28 -28 -29 -30 -30 -31 -31 -30 -28 -27 -25 -24 -23 -23 -22 -22 -21 -21 -20 -20 -19 -19 -19 -18 -18 -18 -18 -16 -16 -16 -15 -16 -15 -15 -15 -15
-28 -28 -28 -28 -28 -29 -29 -30 -30 -29 -27 -26 -25 -24 -23 -23 -22 -22 -21 -20 -20 -20 -19 -19 -19 -19 -18 -18 -17 -17 -17 -16 -16 -16 -16 -15 -15 -15
-28 -28 -28 -28 -28 -29 -29 -29 -29 -28 -27 -26 -25 -24 -23 -22 -22 -22 -21 -20 -20 -20 -20 -19 -18 -18 -18 -18 -17 -17 -17 -16 -16 -15 -16 -16 -15 -15
-27 -27 -28 -28 -28 -28 -28 -29 -28 -27 -26 -25 -25 -24 -23 -23 -22 -22 -21 -21 -20 -20 -20 -19 -19 -18 -18 -18 -18 -17 -16 -16 -16 -16 -16 -16 -16 -16
-28 -28 -28 -28 -28 -28 -28 -28 -27 -26 -26 -25 -25 -24 -24 -23 -22 -22 -21 -21 -21 -20 -20 -19 -19 -19 -19 -18 -18 -17 -16 -16 -16 -16 -17 -16 -16 -16
-29 -28 -27 -27 -28 -28 -28 -27 -27 -26 -25 -25 -24 -24 -24 -23 -23 -22 -22 -21 -21 -20 -20 -19 -19 -19 -19 -19 -18 -17 -16 -16 -16 -16 -18 -16 -16 -16
-29 -29 -28 -27 -27 -28 -27 -27 -27 -26 -25 -25 -24 -24 -24 -24 -23 -23 -22 -22 -21 -21 -20 -20 -19 -19 -19 -19 -19 -18 -17 -16 -16 -16 -16 -15 -16 -16
-29 -28 -28 -27 -27 -27 -27 -27 -27 -26 -26 -25 -24 -24 -24 -23 -23 -23 -22 -22 -22 -21 -21 -20 -20 -19 -19 -19 -19 -19 -19 -18 -17 -16 -16 -15 -15 -16
-28 -28 -28 -28 -27 -27 -27 -27 -27 -26 -26 -25 -25 -24 -24 -23 -23 -23 -23 -22 -22 -22 -21 -21 -20 -20 -19 -19 -19 -19 -19 -19 -18 -18 -17 -17 -16 -16
-28 -28 -28 -28 -28 -27 -27 -27 -27 -26 -26 -25 -25 -24 -24 -23 -23 -23 -23 -22 -22 -22 -21 -21 -21 -20 -20 -19 -19 -19 -19 -19 -19 -19 -18 -18 -17 -17
Height
5437 5430 5424 5417 5412 5407 5403 5400 5398 5396 5398 5402 5409 5420 5432 5442 5454 5468 5483 5497 5513 5530 5549 5567 5583 5596 5615 5629 5647 5659 5670 5683 5695 5710 5726 5739 5752 5762
5433 5425 5419 5413 5408 5403 5398 5394 5392 5391 5392 5397 5404 5414 5426 5436 5449 5464 5478 5492 5508 5526 5542 5560 5579 5595 5610 5622 5639 5652 5667 5679 5692 5705 5720 5733 5746 5759
5429 5422 5416 5410 5404 5398 5393 5389 5387 5386 5387 5392 5399 5409 5420 5432 5446 5460 5473 5488 5504 5522 5537 5555 5573 5590 5603 5618 5634 5649 5659 5674 5688 5701 5717 5730 5742 5755
5427 5419 5413 5405 5399 5393 5388 5384 5382 5381 5382 5387 5394 5404 5414 5427 5442 5456 5469 5484 5500 5517 5533 5551 5569 5585 5598 5613 5628 5644 5657 5668 5683 5697 5714 5726 5739 5752
5425 5417 5409 5401 5395 5389 5384 5380 5377 5376 5378 5382 5390 5399 5410 5424 5439 5452 5466 5482 5497 5513 5530 5549 5565 5581 5594 5608 5624 5641 5654 5667 5681 5695 5709 5723 5736 5749
5423 5414 5406 5398 5391 5384 5379 5375 5372 5371 5373 5378 5386 5396 5408 5422 5437 5451 5465 5480 5496 5512 5530 5546 5562 5578 5594 5609 5622 5634 5651 5664 5678 5692 5706 5720 5733 5745
5421 5412 5402 5394 5387 5380 5375 5371 5368 5366 5368 5373 5381 5393 5407 5422 5437 5451 5466 5481 5496 5512 5529 5545 5561 5576 5591 5605 5619 5633 5651 5663 5676 5691 5703 5717 5730 5741
5418 5408 5399 5391 5383 5377 5372 5367 5364 5362 5364 5369 5377 5391 5407 5423 5437 5452 5467 5483 5497 5510 5529 5545 5560 5576 5591 5606 5618 5633 5648 5659 5674 5688 5701 5713 5726 5738
5415 5406 5397 5389 5382 5376 5369 5364 5360 5358 5360 5366 5375 5390 5407 5424 5438 5453 5469 5484 5498 5513 5528 5545 5560 5575 5591 5605 5619 5630 5642 5656 5669 5685 5699 5711 5723 5735
5413 5404 5396 5389 5382 5375 5369 5363 5358 5356 5358 5363 5374 5391 5409 5426 5442 5457 5472 5486 5500 5515 5529 5545 5560 5575 5589 5603 5617 5631 5642 5656 5668 5683 5696 5709 5720 5730
5413 5404 5396 5390 5383 5376 5370 5363 5358 5356 5358 5365 5378 5395 5412 5430 5446 5460 5474 5489 5503 5517 5529 5546 5561 5576 5589 5601 5617 5628 5642 5655 5666 5679 5694 5706 5716 5726
5414 5405 5398 5392 5386 5379 5372 5366 5362 5360 5363 5370 5383 5401 5417 5435 5449 5464 5478 5492 5507 5520 5532 5547 5560 5574 5588 5602 5615 5627 5638 5648 5656 5674 5688 5699 5708 5720
5418 5409 5401 5396 5390 5384 5377 5371 5368 5367 5370 5378 5391 5408 5424 5440 5455 5469 5483 5497 5510 5522 5534 5547 5561 5574 5588 5601 5613 5626 5635 5646 5657 5673 5684 5694 5705 5718
5422 5413 5406 5401 5396 5390 5384 5380 5377 5376 5380 5388 5401 5416 5431 5447 5460 5474 5487 5500 5513 5525 5537 5548 5560 5573 5586 5598 5612 5624 5636 5646 5656 5668 5677 5688 5698 5710
5426 5418 5412 5408 5403 5398 5394 5391 5388 5389 5394 5401 5413 5426 5440 5453 5466 5479 5492 5505 5516 5527 5538 5550 5561 5572 5583 5597 5609 5621 5633 5643 5654 5665 5677 5686 5698 5707
5432 5424 5419 5415 5411 5407 5404 5402 5401 5403 5408 5414 5424 5435 5447 5460 5471 5482 5495 5508 5519 5530 5541 5550 5561 5571 5583 5595 5606 5618 5629 5639 5650 5663 5672 5682 5691 5702
5437 5431 5426 5422 5419 5416 5414 5413 5413 5416 5420 5426 5434 5444 5454 5465 5476 5486 5498 5509 5520 5531 5541 5551 5559 5569 5581 5592 5603 5614 5625 5635 5645 5656 5668 5677 5686 5697
5444 5439 5434 5430 5428 5426 5424 5424 5424 5427 5432 5437 5444 5452 5461 5471 5480 5491 5502 5512 5522 5532 5541 5550 5559 5570 5581 5591 5601 5611 5620 5629 5640 5651 5662 5673 5682 5692
5454 5448 5442 5439 5436 5435 5434 5434 5434 5437 5441 5446 5452 5458 5465 5474 5484 5494 5503 5512 5523 5533 5542 5551 5560 5570 5580 5588 5598 5606 5615 5625 5635 5646 5657 5669 5677 5686
5462 5455 5449 5446 5444 5443 5442 5442 5443 5445 5448 5453 5458 5464 5471 5478 5485 5494 5504 5513 5522 5531 5541 5551 5560 5569 5578 5586 5594 5602 5611 5621 5629 5639 5649 5661 5670 5679
5469 5463 5457 5453 5451 5450 5450 5450 5450 5452 5454 5458 5463 5469 5474 5481 5488 5495 5503 5512 5521 5530 5539 5548 5558 5568 5575 5582 5590 5598 5607 5615 5624 5633 5642 5652 5663 5671
5476 5471 5465 5461 5458 5457 5457 5457 5457 5459 5461 5464 5468 5473 5478 5484 5490 5497 5504 5512 5520 5528 5536 5545 5555 5563 5571 5579 5586 5594 5602 5610 5619 5627 5634 5645 5654 5662
5484 5479 5474 5469 5466 5463 5462 5462 5463 5464 5467 5469 5473 5477 5482 5487 5492 5497 5503 5510 5517 5524 5532 5540 5549 5558 5566 5575 5582 5590 5597 5605 5612 5621 5629 5637 5644 5653
Wind_Speed
33 31 28 27 25 24 22 19 17 17 17 21 39 51 54 58 59 60 67 76 81 82 85 83 80 82 57 61 73 72 69 74 70 66 62 58 55 50
33 32 31 29 26 24 21 19 16 15 18 18 39 52 55 59 59 60 67 76 81 82 86 87 74 79 66 64 65 62 76 72 71 70 66 62 57 53
34 34 33 29 27 23 20 17 15 13 18 19 38 53 57 59 58 61 66 73 80 82 85 86 86 78 71 69 66 63 67 73 70 71 66 62 59 55
34 34 34 31 27 22 19 17 14 12 18 20 37 54 59 59 58 60 65 71 79 81 84 85 87 83 78 64 70 64 58 80 73 73 67 62 59 56
35 33 31 31 26 21 19 17 13 12 17 21 34 56 60 59 59 60 63 69 75 81 82 85 87 86 73 74 71 61 65 77 73 71 68 63 60 57
34 32 31 28 24 22 20 17 12 11 17 24 35 58 61 60 59 59 62 67 72 79 81 83 87 89 74 65 56 61 64 77 74 72 68 64 60 58
33 31 29 27 23 22 21 17 12 10 16 24 37 60 62 61 59 58 61 65 70 76 79 80 84 81 75 64 60 58 65 69 75 72 69 64 60 58
34 33 30 28 24 23 21 16 11 9 15 24 40 62 62 61 59 57 60 62 68 73 76 78 81 83 76 66 61 65 66 66 70 70 69 63 62 58
36 35 31 27 25 24 22 17 12 6 14 25 44 62 63 62 59 57 59 60 65 69 70 75 78 83 79 67 67 66 56 56 64 70 69 63 62 58
38 37 32 26 23 23 21 17 12 2 15 29 50 63 62 62 58 57 57 57 60 63 64 67 71 74 72 65 65 65 50 62 59 75 66 64 64 60
39 36 29 24 22 22 20 17 11 4 17 34 54 62 62 62 58 57 56 55 57 58 60 63 65 67 65 67 65 59 57 61 63 68 67 63 65 62
36 32 26 21 21 22 21 18 12 9 21 40 58 61 61 61 58 58 57 56 55 53 55 57 56 56 61 58 65 58 68 68 52 62 76 64 57 57
33 29 23 20 22 22 22 21 14 13 27 46 59 60 61 59 57 57 58 54 51 49 51 55 55 53 53 52 54 55 58 67 67 56 74 61 68 66
29 26 22 20 23 23 23 21 16 19 34 52 59 57 59 58 54 55 56 53 50 48 51 56 53 56 52 49 46 52 61 59 56 62 67 67 61 53
29 27 22 20 22 22 23 20 19 25 40 52 55 54 56 55 54 55 55 54 50 46 48 51 53 53 51 51 49 49 53 51 57 52 52 69 68 52
30 28 22 21 21 22 23 21 20 28 39 49 50 50 52 54 53 54 55 55 53 48 47 47 51 52 51 52 51 50 51 51 53 52 56 61 64 59
31 27 23 20 22 22 22 19 21 28 37 43 45 46 49 52 52 53 53 53 53 51 46 45 42 45 51 54 51 50 51 52 52 49 54 52 53 54
35 27 23 20 21 20 20 18 20 27 33 38 40 42 45 48 49 49 50 50 50 50 48 45 42 39 45 51 47 50 50 53 55 56 52 53 53 54
33 28 22 20 19 17 18 18 18 24 29 34 37 38 40 43 45 47 46 47 48 48 46 45 45 41 39 42 44 45 51 54 56 57 56 59 54 46
32 28 23 20 19 18 18 16 16 19 25 29 32 34 36 39 41 42 44 45 44 45 45 45 45 42 39 38 43 41 47 57 59 60 57 61 57 52
32 30 25 21 18 16 18 16 15 17 21 26 29 31 33 35 37 39 40 42 44 45 45 45 46 44 41 37 41 44 42 48 57 60 60 59 65 59
30 29 29 26 21 17 15 16 13 15 19 23 26 29 30 32 35 38 40 41 42 44 44 46 48 47 44 41 38 41 45 44 48 55 59 63 63 61
28 27 27 27 25 22 18 15 15 14 18 20 23 25 28 30 31 33 36 40 42 42 44 45 47 48 47 45 43 41 41 45 47 48 52 57 60 63
Wind_Direction
337 334 334 334 328 321 315 306 285 273 246 211 198 195 196 196 197 195 193 193 194 196 195 194 201 202 204 194 183 187 192 186 182 184 187 188 187 186
338 335 336 334 328 323 316 306 287 266 245 208 196 193 195 197 195 193 193 193 193 195 196 195 192 194 199 186 172 171 186 188 185 184 188 188 187 187
339 337 337 334 333 328 321 306 291 261 241 205 193 192 195 196 193 192 193 193 193 193 196 195 193 198 200 196 179 181 187 190 186 186 189 188 187 187
340 338 339 337 337 331 324 316 290 265 235 207 190 192 194 195 192 191 192 193 192 193 196 196 195 198 203 202 189 179 181 184 187 186 189 189 189 188
342 340 338 337 339 334 329 325 296 266 231 208 187 191 193 194 191 189 192 192 192 193 195 195 196 198 198 202 194 182 185 188 187 186 189 189 190 189
343 342 340 341 343 339 333 329 306 269 228 206 186 189 191 192 190 188 191 191 191 193 194 195 196 200 202 199 203 176 176 189 189 188 190 190 191 190
348 348 346 345 349 345 339 331 306 271 223 201 184 187 190 190 189 187 189 189 190 193 195 195 197 199 201 198 203 190 183 186 193 190 190 192 193 193
353 353 354 351 353 351 345 337 321 272 218 194 181 185 187 188 188 186 187 187 190 192 194 195 196 201 200 200 202 193 175 183 191 190 189 194 196 195
357 355 357 355 355 355 351 345 337 272 204 184 177 181 183 185 185 183 185 186 189 192 194 195 198 202 202 204 198 195 168 173 183 190 188 193 197 198
357 356 360 359 358 1 1 356 348 252 181 174 172 177 180 182 182 181 183 183 186 191 192 196 197 202 203 205 206 201 200 194 184 192 190 197 199 200
356 355 1 4 7 9 12 12 12 119 159 165 166 173 177 178 180 179 180 180 182 187 189 194 195 199 203 207 208 210 202 190 182 188 192 198 203 203
355 358 7 13 17 20 24 26 39 114 150 158 161 169 174 176 177 177 177 176 175 180 185 189 191 195 201 205 205 207 210 189 177 181 192 195 187 205
1 7 17 28 27 29 36 37 52 114 146 152 155 165 171 174 176 175 176 176 177 178 180 182 184 184 191 198 208 205 208 215 213 199 186 191 193 200
12 23 29 34 34 41 45 48 70 120 141 148 152 161 167 172 173 173 176 177 177 178 180 183 181 181 182 191 191 201 199 205 209 195 201 204 207 210
20 30 37 40 39 52 54 57 87 124 141 145 151 159 166 170 172 171 172 175 176 178 180 183 186 186 185 189 190 200 209 206 212 215 211 206 205 199
26 33 41 49 51 63 63 66 98 128 141 145 151 157 164 168 171 171 172 175 176 173 173 177 186 188 192 193 194 197 201 208 202 205 205 199 201 204
31 31 39 56 57 70 69 76 110 134 143 147 152 158 164 170 172 173 174 174 176 179 178 175 176 184 191 192 194 201 201 204 207 207 198 203 205 206
31 30 38 57 61 71 77 82 117 138 146 150 154 159 164 171 174 175 177 177 178 181 183 183 179 180 187 191 193 196 204 206 211 213 214 200 200 204
29 36 46 53 60 70 85 90 111 140 150 154 157 162 166 170 176 178 180 181 183 185 186 185 186 184 186 192 194 195 198 203 207 209 220 210 202 209
32 38 52 59 63 82 87 94 111 132 150 155 159 164 168 173 176 180 184 186 187 189 190 191 191 193 193 191 194 199 200 202 205 209 209 218 216 214
31 39 51 63 70 84 94 88 114 129 145 156 162 166 170 174 178 182 185 187 192 198 199 198 197 197 198 198 196 196 202 206 208 208 211 214 223 225
34 35 46 57 67 80 98 104 102 133 141 152 162 167 171 176 178 182 186 189 191 193 200 205 205 203 202 201 198 199 202 204 210 211 211 213 216 219
38 38 44 51 58 72 92 102 114 126 142 146 156 166 173 176 180 184 187 190 191 193 195 198 200 203 204 204 203 202 202 206 206 209 215 217 216 218